Flag for Austria Weather past 2 weeks in Eisenstadt, Burgenland, Austria

Now
61 °F

Cool.


Feels Like: 61 °F
Forecast: 57 / 80 °F
Wind: 3 mph from North

Location: Eisenstadt

Current Time: Jun 30, 2015 at 1:29:23 AM

Latest Report: Jun 30, 2015 at 12:00 AM


Visibility: N/A

Pressure: 30.16 "Hg

Humidity: 77%

Dew point: 54 °F

Location of EisenstadtLocation

Historic Weather in Eisenstadt — Graph

°F

Eisenstadt temperature yesterday

Maximum temperature yesterday: 74 °F (at 6:00 PM)
Minimum temperature yesterday: 56 °F (at 5:00 AM)
Average temperature yesterday: 66 °F

Past Weeks' High & Low Weather Summary

 TemperatureHumidityPressure
High78 °F (Jun 27, 2:00 PM)95% (Jun 23, 5:00 AM)30.24 "Hg (Jun 23, 5:00 AM)
Low51 °F (Jun 21, 6:00 AM)34% (Jun 26, 2:00 PM)29.70 "Hg (Jun 15, 4:00 AM)
Average64 °F63%30.02 "Hg
* Reported Midnight between Jun 14 and Jun 15 — Midnight between Jun 29 and Jun 30, Eisenstadt, Weather by CustomWeather, © 2015

Note: Actual official high and low records may vary slightly from our data, if they occured in-between our weather recording intervals... More about our weather records

Advertising

Eisenstadt weather history for previous 24 hours

 ConditionsComfort  
Time TempWeatherWind HumidityBarometerVisibility
12:00 AM
Tue, Jun 30
61 °FCool.3 mph77%30.16 "HgN/A
10:00 PM
Mon, Jun 29
64 °FMild.3 mph73%30.14 "HgN/A
9:00 PM65 °FMild.6 mph71%30.13 "HgN/A
8:00 PM71 °FPassing clouds.2 mph53%30.11 "Hg16 mi
7:00 PM74 °FPassing clouds.3 mph46%30.10 "Hg16 mi
6:00 PM74 °FMild.3 mph42%30.10 "HgN/A
5:00 PM74 °FPassing clouds.3 mph40%30.11 "Hg16 mi
4:00 PM72 °FMild.3 mph45%30.12 "HgN/A
3:00 PM72 °FMild.2 mph45%30.13 "HgN/A
2:00 PM71 °FOvercast.2 mph49%30.15 "Hg19 mi
1:00 PM71 °FMild.2 mph53%30.16 "HgN/A
12:00 PM70 °FMild.2 mph54%30.16 "HgN/A
11:00 AM70 °FOvercast.2 mph55%30.16 "Hg19 mi
10:00 AM66 °FMild.3 mph60%30.17 "HgN/A
9:00 AM68 °FMild.1 mph55%30.16 "HgN/A
8:00 AM65 °FPartly sunny.2 mph59%30.16 "Hg19 mi
7:00 AM61 °FPartly sunny.2 mph70%30.16 "Hg19 mi
6:00 AM57 °FScattered clouds.3 mph75%30.16 "Hg16 mi
5:00 AM56 °FPassing clouds.2 mph76%30.15 "Hg16 mi
4:00 AM57 °FClear.3 mph77%30.16 "Hg16 mi
3:00 AM57 °FCool.5 mph78%30.16 "HgN/A
2:00 AM58 °FClear.5 mph76%30.16 "Hg16 mi
1:00 AM59 °FCool.5 mph76%30.16 "HgN/A
Weather by CustomWeather, © 2015

See weather overviewHow to use our weather pages